This demonstration page uses our WeatherBlox Daily Observations layout. Learn more.

Left ArrowRight Arrow

Hourly Observations for February 16, 2019

Temp ( °F °C ) Dew Point ( °F °C ) Humidity (%) Winds ( mph kmh ) Pressure ( in mb ) Visibility ( mi km ) Precip ( " mm )
12:53 am 00:53 Cloudy 59 15 59 15 100 100 SSW 8 13 29.73 1007 10 16 0.00 0.03
1:07 am 01:07 Cloudy with Light Rain 60 15.6 59 15 96 96 SSW 13 20 29.73 1007 8 13 0.01 0.25
1:39 am 01:39 Cloudy 60 15.6 59 15 96 96 SSW 10 17 29.73 1007 8 13 0.01 0.25
1:53 am 01:53 Cloudy 60 15.6 60 15.6 100 100 SSW 9 15 29.72 1006 10 16 0.01 0.25
2:53 am 02:53 Cloudy 60 15.6 60 15.6 100 100 SW 9 15 29.70 1006 10 16 0.00 0.00
3:53 am 03:53 Cloudy 60 15.6 60 15.6 100 100 SW 9 15 29.69 1005 10 16 0.00 0.00
4:53 am 04:53 Cloudy with Light Rain 61 16.1 60 15.6 97 97 SW 10 17 29.68 1005 10 16 0.00 0.03
5:53 am 05:53 Cloudy with Light Rain 60 15.6 60 15.6 100 100 SSW 10 17 29.68 1005 7 11 0.04 1.02
6:28 am 06:28 Cloudy with Light Rain 60 15.6 60 15.6 100 100 SW 7 11 29.70 1006 7 11 0.02 0.51
6:35 am 06:35 Cloudy 60 15.6 60 15.6 100 100 SSW 8 13 29.69 1005 10 16 0.02 0.51
6:53 am 06:53 Cloudy with Rain 55 12.8 55 12.8 100 100 NNW 12 19 29.72 1007 5 8 0.08 2.03
7:34 am 07:34 Cloudy 54 12.2 51 10.6 90 90 NNW 6 9 29.76 1008 10 16 0.00 0.03
7:53 am 07:53 Cloudy 54 12.2 52 11.1 93 93 Calm 29.75 1007 10 16 0.00 0.03
8:51 am 08:51 Partly Cloudy 54 12 52 11 94 94 WNW 8 13 29.78 1009 10 16 0.00 0.00
8:53 am 08:53 Partly Cloudy 55 12.8 53 11.7 93 93 W 7 11 29.77 1008 10 16 0.00 0.00
9:01 am 09:01 Mostly Cloudy 53 11.7 52 11.1 96 96 WNW 8 13 29.78 1009 10 16 0.00 0.00
9:53 am 09:53 Cloudy 52 11.1 50 10 93 93 WSW 8 13 29.79 1009 10 16 0.00 0.00
10:53 am 10:53 Mostly Cloudy 53 11.7 50 10 89 89 NW 10 17 29.81 1009 10 16 0.00 0.00
11:53 am 11:53 Mostly Cloudy 57 13.9 52 11.1 83 83 NNW 7 11 29.79 1009 10 16 0.00 0.00
12:05 pm 12:05 Partly Cloudy 57 13.9 52 11.1 83 83 WNW 8 13 29.80 1009 10 16 0.00 0.00
12:26 pm 12:26 Mostly Cloudy 57 13.9 52 11.1 83 83 NW 8 13 29.79 1009 10 16 0.00 0.00
12:36 pm 12:36 Mostly Cloudy 57 13.9 52 11.1 83 83 NW 9 15 29.79 1009 10 16 0.00 0.00
12:53 pm 12:53 Partly Cloudy 57 13.9 51 10.6 81 81 NW 8 13 29.78 1008 10 16 0.00 0.00
1:00 pm 13:00 Mostly Cloudy 56 13.3 50 10 81 81 NW 10 17 29.78 1008 10 16 0.00 0.00
1:53 pm 13:53 Mostly Cloudy 58 14.4 51 10.6 78 78 NW 8 13 29.78 1008 10 16 0.00 0.00
2:19 pm 14:19 Partly Cloudy 57 13.9 50 10 78 78 NW 12 19 29.79 1009 10 16 0.00 0.00
2:53 pm 14:53 Mostly Cloudy 56 13.3 49 9.4 77 77 NNW 10 17 29.77 1008 10 16 0.00 0.00
3:16 pm 15:16 Partly Cloudy 57 13.9 50 10 78 78 VRB 6 9 29.79 1009 10 16 0.00 0.00
3:53 pm 15:53 Mostly Sunny 57 13.9 50 10 78 78 NW 12 19 29.78 1008 10 16 0.00 0.00
4:32 pm 16:32 Mostly Cloudy 57 13.9 50 10 78 78 N 10 17 29.81 1009 10 16 0.00 0.00
4:53 pm 16:53 Cloudy 55 12.8 49 9.4 80 80 NNW 8 13 29.79 1009 10 16 0.00 0.00
5:01 pm 17:01 Partly Cloudy 54 12.2 49 9.4 83 83 NW 10 17 29.81 1010 10 16 0.00 0.00
5:53 pm 17:53 Partly Cloudy 53 11.7 48 8.9 83 83 NW 7 11 29.81 1010 10 16 0.00 0.00
6:53 pm 18:53 Partly Cloudy 50 10 47 8.3 89 89 NW 6 9 29.83 1010 10 16 0.00 0.00
7:53 pm 19:53 Cloudy 49 9.4 46 7.8 90 90 NNW 5 7 29.83 1010 10 16 0.00 0.00
8:53 pm 20:53 Mostly Cloudy 49 9.4 46 7.8 90 90 Calm 29.85 1011 10 16 0.00 0.00
9:53 pm 21:53 Clear 48 8.9 46 7.8 93 93 Calm 29.88 1012 10 16 0.00 0.00
10:53 pm 22:53 Clear 48 8.9 46 7.8 93 93 Calm 29.86 1011 10 16 0.00 0.00
11:53 pm 23:53 Clear 46 7.8 46 7.8 100 100 Calm 29.87 1012 10 16 0.00 0.00

Powered by AerisWeather